Погода в Бау-Бау

Индонезия     5°27′41″S   122°41′29″E
темп.,
°C
ветер,
м/с
пор.,
м/с
влажн.,
%
обл.,
%
осадки,
мм/ч
давл.,
гПа
погр.,
м
26 января, вт
вт2623:00+24зюз41090100 1.6 1008590
02:00+24з41088100 4.8 1006492
05:00+24зсз2690100 0.3 1006265
08:00+26з4784100 0.4 1008896
11:00+27з368096 2.8 1007688
14:00+28з477098 3.6 10051089
17:00+26з3681100 0.5 1005675
20:00+24з2691100 1.1 1007289
27 января, ср
ср2723:00+24з3793100 2.4 1007247
02:00+24сз2392100 2.5 1005112
05:00+24ссз2793100 0.1 1005324
08:00+25сз4984100 0.1 1007639
11:00+29зсз586781 0.5 10061131
14:00+30зсз586056 0.9 10041297
17:00+27зюз24750 0.4 1004477
20:00+24юз118829 0.6 100630
28 января, чт
чт2823:00+24ссв119092 1.6 100728
02:00+23с129196 2.6 100629
05:00+23с239497 0.4 100687
08:00+26ссз388388 0.4 1007620
11:00+30сз486154 0.0 10071141
14:00+31зсз465835 0.1 10041220
17:00+28зсз377456 0.6 1004923
20:00+24з249232 3.0 1006138
29 января, пт
пт2923:00+24зсз119353 3.1 100728
02:00+23сз3109274 4.4 1006480
05:00+23ссз31192100 0.4 1007576
08:00+25ссз3888100 0.9 1008483
11:00+29сз4766100 0.0 1008994
14:00+30з4660100 0.0 10061204
17:00+26зюз2483100 1.1 1005354
20:00+24юз1291100 3.3 100757
30 января, сб
сб3023:00+24з3792100 5.8 1008233
02:00+23сз1193100 7.7 100729
05:00+22ссз2295100 1.1 100766
08:00+24ссз2788100 1.7 1008410
11:00+27сз3780100 0.5 1008808
14:00+29сз466793 1.3 1006935
17:00+25зсз378689 2.7 1006458
20:00+24зюз379194 2.7 1008316